Wind_Speed
43 44 45 46 47 48 49 50 50 51 52 53 54 55 57 59 62 64 66 66 66 65 64 61 58 55 54 52 50 50 49 48 46 45 43 40 37 35 32 29 27 26 24
45 46 46 47 48 49 49 49 50 51 52 53 54 55 55 57 59 61 64 68 70 70 70 69 66 63 59 57 55 54 52 51 50 48 46 44 40 37 34 31 29 27 25
46 47 47 48 50 50 50 50 50 51 51 52 53 54 55 55 56 58 60 63 67 70 72 72 72 70 67 64 60 58 56 54 52 51 49 47 43 40 37 34 31 29 27
47 48 49 50 51 51 51 51 51 51 51 52 53 53 54 54 54 55 57 59 62 65 69 71 73 73 72 69 64 61 59 58 55 53 51 49 46 42 39 36 34 31 29
49 50 51 52 52 52 52 52 51 50 50 50 51 52 53 53 53 52 53 55 57 59 63 67 70 72 73 72 69 66 64 62 59 57 53 51 48 45 42 39 36 33 31
51 52 52 52 52 52 51 51 50 49 48 48 48 49 51 51 51 50 50 51 52 54 56 60 64 68 71 72 72 69 67 63 62 59 56 53 50 47 44 41 38 35 32
52 52 52 51 51 51 49 48 46 44 44 44 44 45 47 48 49 49 49 48 48 49 50 52 56 61 66 69 71 71 69 66 63 61 58 55 52 49 47 43 40 37 34
52 52 51 50 49 48 46 43 41 39 39 39 40 40 42 44 46 48 47 47 46 46 45 45 47 51 56 61 65 68 70 69 65 61 57 55 52 50 48 45 41 37 35
52 52 50 48 46 44 42 38 36 35 34 35 37 38 39 41 43 45 45 44 44 43 41 40 40 42 46 50 56 61 64 66 67 63 60 55 53 50 47 45 43 39 35
51 50 48 47 44 41 38 34 31 30 29 30 31 34 36 38 41 42 43 42 41 40 39 38 37 37 38 40 44 50 55 58 62 62 58 56 53 49 46 44 42 39 36
51 49 47 44 40 37 34 30 26 24 23 24 26 29 31 34 37 38 39 39 39 39 37 36 35 35 34 35 37 41 46 50 55 57 56 53 51 49 46 42 41 39 36
50 47 44 41 37 34 30 26 22 19 17 17 19 22 25 28 32 34 35 36 37 37 36 35 34 33 33 32 33 36 40 44 49 52 52 52 50 47 45 42 39 38 36
48 45 42 38 35 31 28 23 19 16 13 11 13 16 20 24 27 30 32 33 34 34 34 34 32 31 31 31 31 34 37 41 45 48 49 48 47 45 44 42 39 37 35
47 44 40 37 34 30 27 23 19 15 10 8 9 12 15 18 22 25 28 30 31 31 31 31 30 30 29 29 29 32 35 38 42 46 47 46 45 45 43 41 39 37 35
45 42 39 36 33 29 26 23 19 15 10 5 5 9 13 16 20 23 25 26 27 28 28 28 27 28 28 28 28 31 34 38 41 44 46 45 45 44 43 41 39 37 34
42 40 38 35 33 29 25 22 19 15 10 4 1 6 10 14 19 22 23 23 24 25 25 25 26 26 27 27 28 30 35 38 39 42 44 44 44 44 42 40 37 35 34
40 38 37 35 32 29 25 22 19 16 12 8 5 5 9 13 16 18 20 21 21 22 22 23 24 25 25 26 28 31 36 38 39 41 42 44 43 42 40 38 36 34 33
38 36 35 34 31 29 25 22 19 17 14 11 9 8 9 12 14 16 16 17 18 19 20 21 21 22 23 25 29 34 37 39 39 40 41 42 42 40 39 36 35 33 32
36 34 33 32 30 27 25 22 19 17 14 12 11 10 9 11 12 13 14 14 15 17 18 18 18 19 22 25 31 35 37 38 37 40 40 40 40 38 36 34 33 32 31
35 33 32 30 28 26 23 22 19 17 15 13 12 11 10 10 11 11 12 12 13 15 15 16 16 18 21 27 31 33 36 37 38 39 39 37 36 35 34 33 32 31 30
33 32 31 29 27 25 22 20 19 17 16 14 12 11 11 10 10 10 10 11 12 13 15 16 16 18 23 28 31 34 36 36 36 37 36 35 33 32 31 30 29 28 27
31 30 30 28 26 24 22 20 18 17 15 14 13 12 11 11 11 10 11 11 12 14 16 17 19 23 27 30 33 35 35 35 36 37 35 33 32 30 29 27 26 25 25
28 28 28 27 25 23 22 21 20 18 17 15 14 13 13 13 13 13 14 15 17 19 21 24 25 27 30 32 33 34 34 34 33 32 31 30 28 27 26 25 24 23 23
25 26 26 25 24 22 22 21 21 19 18 18 17 17 17 17 17 18 19 19 21 23 25 26 27 29 31 32 32 32 33 32 31 31 29 28 26 24 24 23 22 22 22
22 22 23 23 22 21 21 21 20 20 20 20 20 20 20 20 20 21 22 23 24 25 26 27 28 28 29 29 28 28 28 27 27 27 25 24 23 23 22 22 21 20 20
18 19 20 20 20 19 19 20 20 20 20 20 21 21 21 22 22 23 25 26 26 26 27 28 28 28 27 27 26 25 24 24 24 24 23 22 21 21 20 20 19 19 18
Wind_Direction
301 299 296 293 290 287 284 281 277 274 272 269 265 261 257 253 249 246 243 241 240 239 238 237 237 238 238 237 237 236 235 235 235 235 236 237 237 238 240 245 250 255 260
305 303 300 298 295 292 288 283 279 276 273 269 265 262 258 254 251 248 245 242 240 239 238 237 237 237 237 238 237 236 236 235 235 235 236 237 237 238 239 242 246 251 257
308 305 303 301 298 295 291 286 282 278 274 270 265 260 256 254 251 248 246 244 241 239 239 238 238 237 236 237 237 237 236 236 235 234 235 236 236 237 239 241 244 248 253
310 308 306 303 301 297 293 288 284 279 275 269 264 259 255 252 250 248 246 244 242 240 239 238 238 238 238 238 237 237 236 235 235 234 233 234 235 236 238 239 242 246 250
313 311 309 305 303 299 294 289 286 280 274 268 263 259 255 251 248 246 245 243 242 241 240 238 238 238 238 237 237 236 236 235 235 234 233 232 233 235 236 237 240 243 247
317 314 311 308 305 302 297 292 286 280 273 268 262 257 252 249 246 244 243 242 241 241 240 239 238 237 238 237 237 236 236 236 236 235 234 233 232 234 235 236 238 240 243
320 317 314 312 309 306 301 296 289 281 273 266 260 254 249 247 245 243 241 240 239 240 240 239 239 238 238 238 238 237 236 236 236 236 234 233 232 232 233 234 235 237 239
324 322 319 316 313 310 305 299 292 283 275 266 257 251 246 243 243 241 239 238 237 237 238 239 240 240 239 239 238 238 238 237 236 235 233 233 232 231 231 231 233 236 237
328 326 323 320 317 315 310 304 295 286 276 266 255 248 243 241 240 239 236 234 233 233 234 236 237 239 239 239 238 238 238 238 237 235 234 233 234 232 231 230 231 234 236
333 330 328 325 322 320 315 309 301 291 279 267 256 247 241 238 237 234 232 231 228 228 230 232 233 235 237 236 236 236 235 235 235 235 233 231 231 231 230 230 230 231 234
337 336 333 331 329 327 323 317 310 300 284 268 254 246 241 235 233 230 227 226 224 225 226 229 231 233 234 234 234 232 229 229 229 228 227 226 227 228 228 228 228 229 232
342 341 339 338 337 336 334 329 321 310 292 271 254 244 237 230 227 225 223 222 221 222 223 225 228 231 232 233 232 228 223 222 222 221 221 222 223 224 225 225 224 226 229
346 346 345 345 344 344 343 341 334 324 306 277 254 240 232 226 223 221 219 218 216 216 219 222 225 229 230 231 231 225 220 216 214 213 214 216 217 218 220 220 221 223 227
350 350 350 350 351 351 352 349 344 337 322 286 253 231 222 218 216 213 212 211 211 213 217 221 224 226 227 229 229 224 217 210 206 205 206 209 212 214 215 216 217 220 223
354 355 356 356 357 356 356 354 352 348 342 308 238 217 210 207 204 201 202 205 207 210 214 218 221 222 224 225 225 220 211 202 200 200 200 202 206 209 210 210 213 216 220
357 359 0 1 2 2 3 4 5 5 8 17 162 186 192 194 193 195 199 202 203 205 209 215 218 221 223 222 216 209 200 194 194 194 195 196 200 203 205 205 208 212 216
359 1 4 5 8 9 10 14 18 23 34 52 87 139 163 174 182 188 192 195 198 202 208 214 218 220 220 214 205 199 194 189 189 189 191 193 195 198 200 202 206 211 214
2 4 6 8 12 15 19 23 29 36 45 59 78 107 136 153 166 174 179 186 193 200 206 212 215 216 212 203 196 191 186 182 182 185 187 189 190 193 197 201 205 208 211
4 7 8 11 14 18 24 29 35 43 51 62 76 93 118 136 152 162 171 181 190 197 203 208 210 208 201 195 190 185 180 178 179 181 184 187 188 191 194 199 202 205 208
7 10 12 15 19 22 26 32 38 45 54 63 77 93 110 125 138 150 163 174 185 192 196 197 196 195 189 183 180 177 174 174 176 178 180 182 185 189 193 197 199 203 207
9 13 15 18 22 26 31 37 43 50 56 63 73 88 103 116 131 143 152 164 173 179 180 178 178 177 174 172 170 168 167 170 172 173 175 178 183 187 190 193 198 203 206
10 15 18 21 25 29 34 39 44 50 56 62 70 81 95 107 115 125 137 146 152 155 158 160 161 162 162 161 160 161 163 166 168 170 174 178 182 184 187 192 197 201 203
10 16 19 23 27 33 38 42 47 53 58 62 72 84 93 103 109 115 122 129 134 136 137 140 146 152 155 156 156 159 161 163 166 172 176 177 180 184 188 192 195 196 199
10 16 21 25 32 38 43 46 50 55 62 67 77 86 92 97 101 108 114 121 127 131 134 137 141 145 146 147 151 155 159 163 167 171 174 178 180 183 185 188 190 192 194
11 17 24 29 36 43 46 50 54 59 66 73 81 87 91 95 100 106 113 119 124 128 130 133 137 140 143 146 149 153 157 161 164 167 170 173 176 177 179 183 187 191 195
11 19 26 31 37 43 49 54 58 64 71 78 84 89 92 95 100 105 111 117 122 126 130 133 137 140 143 146 147 150 153 157 160 164 167 170 173 176 179 183 188 192 196
Height
5717 5712 5706 5701 5695 5691 5686 5683 5679 5677 5675 5674 5673 5674 5676 5678 5681 5686 5690 5696 5701 5706 5712 5717 5723 5729 5734 5739 5744 5749 5755 5761 5766 5771 5775 5780 5785 5789 5792 5795 5797 5799 5801
5703 5697 5691 5685 5679 5674 5669 5664 5661 5658 5656 5654 5654 5654 5656 5658 5661 5665 5670 5675 5681 5687 5693 5699 5706 5712 5719 5725 5731 5736 5742 5748 5754 5760 5765 5770 5775 5780 5784 5787 5790 5792 5794
5690 5683 5676 5669 5662 5656 5651 5646 5642 5639 5636 5634 5634 5635 5636 5639 5642 5646 5650 5655 5661 5668 5674 5681 5688 5695 5702 5708 5715 5722 5729 5735 5742 5748 5754 5759 5765 5771 5775 5779 5782 5785 5786
5676 5668 5660 5653 5645 5638 5632 5626 5622 5619 5616 5614 5614 5615 5617 5620 5623 5627 5631 5636 5642 5648 5655 5662 5669 5677 5684 5691 5699 5707 5715 5722 5729 5735 5742 5749 5755 5761 5766 5770 5774 5777 5779
5662 5653 5644 5636 5628 5620 5613 5606 5602 5598 5595 5594 5594 5595 5598 5601 5605 5610 5614 5619 5625 5630 5637 5644 5651 5659 5667 5675 5683 5692 5700 5707 5715 5723 5730 5737 5744 5750 5756 5761 5765 5769 5771
5649 5639 5628 5619 5610 5601 5593 5587 5581 5577 5575 5574 5575 5576 5579 5583 5588 5593 5598 5604 5609 5615 5621 5627 5634 5641 5649 5658 5667 5676 5685 5693 5701 5709 5718 5726 5733 5740 5746 5751 5756 5761 5764
5635 5624 5613 5603 5593 5583 5575 5567 5561 5557 5555 5555 5556 5558 5562 5567 5572 5578 5583 5589 5596 5601 5607 5613 5618 5625 5633 5642 5650 5659 5669 5678 5687 5696 5705 5714 5722 5729 5736 5742 5747 5752 5755
5621 5609 5598 5587 5577 5567 5558 5550 5545 5540 5538 5538 5539 5542 5546 5551 5556 5562 5568 5575 5582 5589 5595 5600 5606 5612 5619 5626 5634 5643 5652 5663 5674 5684 5694 5702 5710 5717 5724 5731 5737 5742 5747
5609 5596 5584 5573 5562 5553 5543 5536 5530 5525 5523 5523 5524 5527 5531 5536 5541 5547 5554 5562 5570 5578 5584 5590 5595 5601 5607 5614 5622 5630 5639 5648 5658 5670 5680 5689 5698 5707 5714 5721 5728 5734 5739
5597 5585 5572 5561 5550 5540 5531 5523 5517 5513 5510 5510 5511 5514 5518 5523 5529 5535 5542 5551 5560 5568 5575 5581 5586 5592 5596 5602 5608 5616 5625 5634 5645 5656 5668 5678 5688 5696 5704 5712 5719 5725 5730
5588 5575 5563 5551 5540 5530 5521 5514 5508 5503 5500 5500 5501 5504 5507 5512 5518 5524 5532 5541 5550 5557 5565 5572 5577 5583 5588 5593 5599 5606 5613 5621 5632 5644 5656 5667 5677 5687 5695 5703 5710 5717 5723
5580 5568 5555 5544 5533 5523 5515 5507 5501 5497 5494 5493 5494 5496 5499 5504 5510 5516 5525 5533 5541 5549 5557 5563 5569 5575 5580 5585 5590 5596 5602 5610 5620 5632 5645 5657 5668 5678 5687 5695 5702 5708 5714
5575 5562 5550 5539 5529 5519 5511 5504 5498 5493 5490 5489 5490 5492 5494 5499 5504 5510 5518 5526 5534 5542 5549 5556 5562 5568 5573 5578 5582 5587 5593 5601 5611 5623 5635 5647 5659 5669 5678 5686 5693 5700 5706
5571 5559 5547 5537 5527 5517 5510 5503 5497 5492 5489 5487 5487 5489 5491 5495 5500 5506 5514 5521 5529 5536 5544 5550 5556 5561 5566 5570 5574 5580 5586 5594 5604 5615 5626 5638 5650 5660 5670 5678 5686 5694 5699
5569 5557 5546 5536 5526 5517 5510 5503 5497 5492 5488 5486 5486 5487 5490 5494 5498 5504 5511 5518 5526 5532 5539 5545 5550 5555 5559 5563 5568 5573 5579 5587 5597 5608 5619 5630 5642 5653 5662 5671 5679 5687 5693
5569 5558 5547 5537 5527 5519 5511 5505 5499 5493 5490 5487 5487 5488 5490 5494 5499 5504 5510 5517 5523 5529 5535 5540 5545 5549 5553 5557 5561 5566 5573 5582 5592 5602 5613 5624 5635 5646 5656 5665 5673 5680 5687
5569 5559 5549 5539 5530 5521 5514 5508 5502 5497 5493 5491 5490 5491 5493 5496 5500 5505 5510 5516 5521 5526 5532 5536 5540 5544 5548 5551 5556 5562 5570 5578 5587 5598 5609 5619 5630 5641 5650 5659 5667 5675 5681
5571 5561 5551 5542 5533 5525 5518 5512 5507 5502 5499 5497 5496 5496 5497 5500 5503 5507 5511 5516 5521 5525 5529 5533 5536 5540 5543 5547 5552 5559 5567 5576 5585 5596 5606 5616 5627 5637 5647 5655 5663 5670 5676
5573 5563 5554 5546 5538 5530 5524 5518 5513 5509 5506 5503 5502 5502 5503 5504 5507 5510 5513 5517 5520 5524 5527 5530 5534 5537 5541 5545 5551 5558 5566 5575 5584 5594 5605 5615 5624 5634 5643 5651 5659 5666 5672
5576 5566 5558 5550 5542 5535 5529 5524 5519 5515 5512 5510 5509 5508 5508 5509 5510 5512 5515 5518 5520 5523 5526 5529 5532 5536 5540 5545 5551 5558 5567 5576 5585 5595 5604 5614 5624 5632 5641 5649 5656 5662 5668
5579 5570 5562 5554 5547 5540 5535 5529 5525 5522 5519 5517 5515 5513 5513 5513 5514 5516 5517 5519 5521 5524 5527 5530 5533 5537 5542 5547 5553 5561 5569 5578 5587 5597 5606 5615 5624 5632 5640 5647 5653 5659 5664
5582 5574 5566 5559 5552 5546 5540 5535 5531 5528 5525 5522 5520 5519 5518 5518 5518 5519 5520 5521 5523 5525 5529 5532 5536 5541 5546 5552 5559 5566 5574 5582 5590 5600 5609 5617 5625 5632 5639 5645 5651 5657 5662
5585 5578 5571 5564 5558 5552 5546 5542 5537 5534 5530 5528 5525 5524 5523 5523 5523 5524 5524 5526 5528 5531 5534 5538 5542 5547 5553 5559 5566 5573 5580 5588 5595 5604 5611 5619 5626 5632 5638 5644 5649 5654 5659
5589 5582 5576 5570 5564 5558 5553 5548 5544 5540 5537 5534 5532 5531 5530 5529 5530 5530 5531 5533 5535 5538 5542 5546 5550 5555 5561 5567 5573 5579 5586 5593 5600 5608 5614 5620 5627 5633 5638 5643 5648 5653 5658
5591 5586 5580 5575 5570 5564 5560 5555 5551 5548 5545 5542 5540 5539 5538 5538 5538 5538 5539 5541 5544 5547 5551 5555 5559 5564 5569 5575 5581 5587 5593 5599 5605 5611 5617 5622 5627 5633 5638 5643 5648 5653 5657
5594 5589 5585 5580 5575 5570 5566 5562 5558 5555 5553 5551 5549 5548 5547 5547 5547 5548 5549 5551 5553 5556 5560 5564 5568 5573 5577 5583 5588 5593 5598 5604 5609 5614 5619 5624 5629 5634 5638 5643 5647 5651 5655